This demonstration page uses our WeatherBlox Daily Observations layout. Learn more.

Left ArrowRight Arrow

Hourly Observations for January 30, 2017

Temp ( °F °C ) Dew Point ( °F °C ) Humidity (%) Winds ( mph kmh ) Pressure ( in mb ) Visibility ( mi km ) Precip ( " mm )
12:15 am 00:15 Clear 37 2.9 25 -3.7 62 62 W 12 19 30.15 1021 10 16 0.00 0.00
12:35 am 00:35 Clear 36 2.2 25 -3.8 65 65 W 12 19 30.12 1020 10 16 0.00 0.00
12:55 am 00:55 Clear 35 1.4 25 -3.7 69 69 W 10 17 30.12 1020 10 16 0.00 0.00
1:15 am 01:15 Clear 34 1.2 26 -3.6 71 71 W 9 15 30.12 1020 10 16 0.00 0.00
1:35 am 01:35 Clear 33 0.7 26 -3.5 74 74 W 9 15 30.12 1020 10 16 0.00 0.00
1:55 am 01:55 Clear 33 0.6 26 -3.5 74 74 W 10 17 30.12 1020 10 16 0.00 0.00
2:15 am 02:15 Clear 33 0.6 26 -3.5 74 74 W 8 13 30.12 1020 10 16 0.00 0.00
2:35 am 02:35 Clear 32 0.2 25 -3.7 75 75 W 8 13 30.09 1019 10 16 0.00 0.00
2:55 am 02:55 Clear 32 0.1 25 -3.7 76 76 W 9 15 30.09 1019 10 16 0.00 0.00
3:15 am 03:15 Clear 32 0.1 26 -3.6 76 76 W 8 13 30.09 1019 10 16 0.00 0.00
3:35 am 03:35 Clear 32 0 25 -3.8 76 76 W 10 17 30.09 1019 10 16 0.00 0.00
3:55 am 03:55 Clear 32 0 25 -3.8 76 76 W 9 15 30.09 1019 10 16 0.00 0.00
4:15 am 04:15 Clear 33 0.3 25 -3.9 74 74 W 9 15 30.09 1019 10 16 0.00 0.00
4:35 am 04:35 Clear 33 0.5 25 -4 72 72 W 10 17 30.09 1019 10 16 0.00 0.00
4:55 am 04:55 Clear 33 0.5 24 -4.2 71 71 W 9 15 30.06 1018 10 16 0.00 0.00
5:15 am 05:15 Clear 32 0 24 -4.3 73 73 W 9 15 30.06 1018 10 16 0.00 0.00
5:35 am 05:35 Clear 32 0 24 -4.3 73 73 W 9 15 30.06 1018 10 16 0.00 0.00
5:55 am 05:55 Clear 32 0 24 -4.5 72 72 W 9 15 30.03 1017 10 16 0.00 0.00
6:15 am 06:15 Clear 32 0.1 24 -4.3 73 73 W 14 22 30.03 1017 10 16 0.00 0.00
6:35 am 06:35 Clear 32 0.1 24 -4.3 73 73 W 12 19 30.03 1017 10 16 0.00 0.00
6:55 am 06:55 Clear 33 0.6 24 -4.2 71 71 W 12 19 30.03 1017 10 16 0.00 0.00
7:15 am 07:15 Clear 33 0.8 24 -4.2 70 70 W 14 22 30.03 1017 10 16 0.00 0.00
7:35 am 07:35 Clear 33 0.8 24 -4.2 70 70 W 14 22 30.03 1017 10 16 0.00 0.00
7:55 am 07:55 Sunny 33 0.3 25 -4.1 73 73 W 14 22 30.06 1018 10 16 0.00 0.00
8:15 am 08:15 Sunny 33 0.8 25 -4 71 71 W 10 17 30.06 1018 10 16 0.00 0.00
8:35 am 08:35 Sunny 35 1.6 26 -3.6 69 69 W 12 19 30.06 1018 10 16 0.00 0.00
8:55 am 08:55 Sunny 37 3 26 -3.3 64 64 W 13 20 30.03 1017 10 16 0.00 0.00
9:15 am 09:15 Sunny 39 4.1 26 -3.1 60 60 W 13 20 30.00 1016 10 16 0.00 0.00
9:35 am 09:35 Sunny 41 5.2 27 -2.8 57 57 W 16 26 30.03 1017 10 16 0.00 0.00
9:55 am 09:55 Sunny 44 6.5 27 -3 51 51 W 12 19 30.00 1016 10 16 0.00 0.00
10:15 am 10:15 Sunny 45 7.2 27 -3 49 49 W 12 19 30.00 1016 10 16 0.00 0.00
10:35 am 10:35 Sunny 48 8.7 27 -2.6 45 45 W 12 19 30.00 1016 10 16 0.00 0.00
10:55 am 10:55 Sunny 50 9.8 28 -2.5 42 42 WNW 13 20 29.97 1015 10 16 0.00 0.00
11:15 am 11:15 Sunny 52 11.2 28 -2.5 39 39 W 10 17 29.97 1015 10 16 0.00 0.00
11:35 am 11:35 Sunny 55 12.5 26 -3.4 33 33 WNW 13 20 29.94 1014 10 16 0.00 0.00
11:55 am 11:55 Sunny 56 13.2 26 -3.5 31 31 WNW 15 24 29.94 1014 10 16 0.00 0.00
12:15 pm 12:15 Sunny 56 13.4 26 -3.6 31 31 NW 16 26 29.94 1014 10 16 0.00 0.00
12:35 pm 12:35 Sunny 56 13.6 27 -2.6 33 33 NW 14 22 29.94 1014 10 16 0.00 0.00
12:55 pm 12:55 Sunny 57 13.9 25 -3.8 29 29 NW 9 15 29.94 1014 10 16 0.00 0.00
1:15 pm 13:15 Sunny 58 14.3 26 -3.2 30 30 NNW 12 19 29.91 1013 10 16 0.00 0.00
1:35 pm 13:35 Sunny 58 14.5 25 -3.8 28 28 NNW 13 20 29.91 1013 10 16 0.00 0.00
1:55 pm 13:55 Sunny 59 14.9 25 -3.7 28 28 NW 9 15 29.91 1013 10 16 0.00 0.00
2:15 pm 14:15 Sunny 59 14.9 24 -4.4 26 26 NNW 8 13 29.91 1013 10 16 0.00 0.00
2:35 pm 14:35 Sunny 59 15.1 24 -4.3 26 26 NW 8 13 29.91 1013 10 16 0.00 0.00
2:55 pm 14:55 Sunny 59 15.2 25 -3.9 27 27 NW 7 11 29.91 1013 10 16 0.00 0.00
3:15 pm 15:15 Sunny 59 15.2 24 -4.2 26 26 WNW 7 11 29.91 1013 10 16 0.00 0.00
3:35 pm 15:35 Sunny 59 15.1 25 -3.9 27 27 WNW 3 6 29.91 1013 10 16 0.00 0.00
3:55 pm 15:55 Sunny 59 15.2 24 -4.5 26 26 NW 3 6 29.91 1013 10 16 0.00 0.00
4:15 pm 16:15 Sunny 59 14.9 25 -3.9 27 27 N 5 7 29.91 1013 10 16 0.00 0.00
4:35 pm 16:35 Sunny 58 14.2 27 -2.7 31 31 NNE 5 7 29.91 1013 10 16 0.00 0.00
4:55 pm 16:55 Sunny 55 12.7 29 -1.9 37 37 ENE 6 9 29.91 1013 10 16 0.00 0.00
5:15 pm 17:15 Sunny 51 10.5 28 -2.1 42 42 N 3 6 29.94 1014 10 16 0.00 0.00
5:35 pm 17:35 Sunny 50 10 26 -3.5 39 39 Calm 29.94 1014 10 16 0.00 0.00
5:55 pm 17:55 Clear 44 6.6 25 -3.8 48 48 NE 6 9 29.97 1015 10 16 0.00 0.00
6:15 pm 18:15 Clear 42 5.5 25 -3.7 52 52 Calm 29.97 1015 10 16 0.00 0.00
6:35 pm 18:35 Clear 42 5.3 25 -4 51 51 Calm 30.00 1016 10 16 0.00 0.00
6:55 pm 18:55 Clear 40 4.3 25 -4 55 55 SSE 5 7 30.00 1016 10 16 0.00 0.00
7:15 pm 19:15 Clear 36 2.4 24 -4.4 61 61 Calm 30.00 1016 10 16 0.00 0.00
7:35 pm 19:35 Clear 37 2.9 24 -4.4 59 59 Calm 30.00 1016 10 16 0.00 0.00
7:55 pm 19:55 Clear 35 1.4 24 -4.7 64 64 Calm 30.03 1017 10 16 0.00 0.00
8:15 pm 20:15 Clear 34 1 24 -4.5 67 67 Calm 30.03 1017 10 16 0.00 0.00
8:35 pm 20:35 Clear 35 1.9 24 -4.6 62 62 E 3 6 30.03 1017 10 16 0.00 0.00
8:55 pm 20:55 Clear 34 0.9 23 -5.1 65 65 Calm 30.06 1018 10 16 0.00 0.00
9:15 pm 21:15 Clear 35 1.5 24 -4.7 64 64 ESE 3 6 30.03 1017 10 16 0.00 0.00
9:35 pm 21:35 Clear 34 0.9 23 -5 65 65 ENE 6 9 30.06 1018 10 16 0.00 0.00
9:55 pm 21:55 Clear 37 3 22 -5.6 54 54 NNE 7 11 30.03 1017 10 16 0.00 0.00
10:15 pm 22:15 Clear 37 2.5 22 -5.8 55 55 NE 5 7 30.03 1017 10 16 0.00 0.00
10:35 pm 22:35 Clear 36 2.2 22 -5.7 56 56 NE 6 9 30.06 1018 10 16 0.00 0.00
10:55 pm 22:55 Clear 34 1.3 22 -5.4 61 61 NE 3 6 30.06 1018 10 16 0.00 0.00
11:15 pm 23:15 Clear 35 1.7 22 -5.7 58 58 N 3 6 30.06 1018 10 16 0.00 0.00
11:35 pm 23:35 Clear 33 0.3 22 -5.3 66 66 NNW 3 6 30.06 1018 10 16 0.00 0.00
11:55 pm 23:55 Clear 35 1.4 23 -5.1 62 62 N 6 9 30.09 1019 10 16 0.00 0.00

Powered by AerisWeather